Regional Weather Roundup
Issued by NWS Green Bay, WI

Home | Current Version | Previous Version | Graphics & Text | Print | Product List | Glossary Off
Versions: 1 2 3 4 5 6 7 8 9 10 11 12 13 14 15 16 17 18 19 20 21 22 23 24 25 26 27 28 29 30 31 32 33 34 35 36 37 38 39 40 41 42 43 44 45 46 47 48 49 50

000
ASUS43 KGRB 241959
RWRGRB

NORTH-CENTRAL AND NORTHEAST WISCONSIN REGIONAL WEATHER ROUNDUP
NATIONAL WEATHER SERVICE GREEN BAY WI
300 PM CDT FRI OCT 24 2014

WIZ005-009-010>012-018-019-242100-
NORTH CENTRAL WISCONSIN

CITY           SKY/WX    TMP DP  RH WIND       PRES   REMARKS
IRONWOOD       SUNNY     66  46  48 SW14G24   29.77F
MANITOWISH WTR NOT AVBL
ARBOR VITAE    NOT AVBL
EAGLE RIVER    NOT AVBL
LAND O LAKES   NOT AVBL
RHINELANDER    SUNNY     58  45  62 S8        29.88F
PHILLIPS       NOT AVBL
ANTIGO         NOT AVBL
TOMAHAWK       NOT AVBL
MERRILL        NOT AVBL
$$

WIZ013-073-242100-
NORTHEAST WISCONSIN

CITY           SKY/WX    TMP DP  RH WIND       PRES   REMARKS
IRON MOUNTAIN  SUNNY     60  48  64 S7        29.87F
MARINETTE      CLOUDY    54  46  76 SW9       29.91S
$$

WIZ017-030-035>037-045-242100-
CENTRAL WISCONSIN

CITY           SKY/WX    TMP DP  RH WIND       PRES   REMARKS
MEDFORD        NOT AVBL
WAUSAU         SUNNY     55  48  77 S6        29.89F
MOSINEE        NOT AVBL
MARSHFIELD     CLOUDY    57  50  77 S8        29.88F
WISC RAPIDS    PTSUNNY   60  49  66 S6        29.91F
STEVENS POINT  NOT AVBL
WAUPACA        NOT AVBL
SHAWANO        NOT AVBL
CLINTONVILLE   NOT AVBL
$$

WIZ038-039-048-051-242100-
FOX VALLEY

CITY           SKY/WX    TMP DP  RH WIND       PRES   REMARKS
NWS GREEN BAY  CLOUDY    53  49  86 SW9       29.94S
APPLETON       NOT AVBL
OSHKOSH        CLOUDY    54  51  90 SW8       29.94F
FOND DU LAC    CLOUDY    55  50  83 SW10      29.95F
$$

WIZ022-050-052-242100-
EAST CENTRAL WISCONSIN

CITY           SKY/WX    TMP DP  RH WIND       PRES   REMARKS
STURGEON BAY   MOSUNNY   57  48  72 S6        29.92F
MANITOWOC      NOT AVBL
SHEBOYGAN      SUNNY     62  49  62 SW10      29.94F
$$

LMZ563-521-522-541>543-242100-
LAKESHORE

STATION/POSITION TIME  TEMP    WIND        PRES    VSBY  WAVE
                       AIR SEA DIR/SP/G                  HT/PER
                 (UTC) (F)     (DEG/KT/KT) (MB)    (MI)  (FT/S)
SHEBOYGAN LKSHOR 1900   50 51  160/ 15/ 16 1014.6F
KEWAUNEE LKSHORE 1900   51     170/ 11/ 13 1012.6F
ALGOMA MARINA    1900          220/ 12/ 14   N/A
TWO RIVERS CG    1900   51                 1014.1      6   1
NORTHPORT PIER   1900   52     160/  6/  9 1013.5F
N MID LAKE BUOY  1900   50 51  220/ 12/ 16 1014.0F         1/ 5
SISTER BAY LKSHO 1900          220/ 10/ 13   N/A
CHAMBERS ISLAND  1900   49     200/  7/ 12 1013.2F
MENOMINEE LKSHOR 1900   51     210/  6/  9 1013.6F
$$



USA.gov is the U.S. government's official web portal to all federal, state and local government web resources and services.